Time,TemperatureF,DewpointF,PressureIn,WindDirection,WindDirectionDegrees,WindSpeedMPH,WindSpeedGustMPH,Humidity,HourlyPrecipIn,Conditions,Clouds,dailyrainin,SoftwareType,DateUTC
2013-10-08 00:01:00,52.6,38.3,27.99,North,-999,-999.0,-999.0,58,0.00,,,0.00,WSDL version 420,2013-10-08 04:01:00,
2013-10-08 00:06:00,52.3,37.9,27.99,North,-999,-999.0,-999.0,58,0.00,,,0.00,WSDL version 420,2013-10-08 04:06:00,
2013-10-08 00:11:00,52.2,38.1,27.99,North,-999,-999.0,-999.0,59,0.00,,,0.00,WSDL version 420,2013-10-08 04:11:00,
2013-10-08 00:16:00,52.0,38.1,27.99,North,-999,-999.0,-999.0,59,0.00,,,0.00,WSDL version 420,2013-10-08 04:16:00,
2013-10-08 00:21:00,51.6,38.1,27.99,North,-999,-999.0,-999.0,60,0.00,,,0.00,WSDL version 420,2013-10-08 04:21:00,
2013-10-08 00:26:00,51.5,38.1,27.99,North,-999,-999.0,-999.0,60,0.00,,,0.00,WSDL version 420,2013-10-08 04:26:00,
2013-10-08 00:31:00,51.7,38.1,27.99,North,-999,-999.0,-999.0,59,0.00,,,0.00,WSDL version 420,2013-10-08 04:31:00,
2013-10-08 00:36:00,51.8,37.9,27.99,North,-999,-999.0,-999.0,59,0.00,,,0.00,WSDL version 420,2013-10-08 04:36:00,
2013-10-08 00:41:00,51.9,38.2,27.99,North,-999,-999.0,-999.0,59,0.00,,,0.00,WSDL version 420,2013-10-08 04:41:00,
2013-10-08 00:46:00,51.8,37.9,27.99,North,-999,-999.0,-999.0,59,0.00,,,0.00,WSDL version 420,2013-10-08 04:46:00,
2013-10-08 00:51:00,51.6,38.2,27.99,North,-999,-999.0,-999.0,60,0.00,,,0.00,WSDL version 420,2013-10-08 04:51:00,
2013-10-08 00:56:00,51.6,38.1,27.99,North,-999,-999.0,-999.0,60,0.00,,,0.00,WSDL version 420,2013-10-08 04:56:00,
2013-10-08 01:01:00,51.6,37.9,27.99,North,-999,-999.0,-999.0,59,0.00,,,0.00,WSDL version 420,2013-10-08 05:01:00,
2013-10-08 01:06:00,51.6,37.8,27.99,North,-999,-999.0,-999.0,59,0.00,,,0.00,WSDL version 420,2013-10-08 05:06:00,
2013-10-08 01:11:00,51.6,38.2,27.99,North,-999,-999.0,-999.0,60,0.00,,,0.00,WSDL version 420,2013-10-08 05:11:00,
2013-10-08 01:16:00,51.6,38.2,27.99,North,-999,-999.0,-999.0,60,0.00,,,0.00,WSDL version 420,2013-10-08 05:16:00,
2013-10-08 01:21:00,51.4,38.0,27.99,North,-999,-999.0,-999.0,60,0.00,,,0.00,WSDL version 420,2013-10-08 05:21:00,
2013-10-08 01:26:00,51.3,37.9,27.99,North,-999,-999.0,-999.0,60,0.00,,,0.00,WSDL version 420,2013-10-08 05:26:00,
2013-10-08 01:31:00,51.1,37.7,27.99,North,-999,-999.0,-999.0,60,0.00,,,0.00,WSDL version 420,2013-10-08 05:31:00,
2013-10-08 01:36:00,51.1,37.7,27.99,North,-999,-999.0,-999.0,60,0.00,,,0.00,WSDL version 420,2013-10-08 05:36:00,
2013-10-08 01:41:00,51.1,37.7,27.99,North,-999,-999.0,-999.0,60,0.00,,,0.00,WSDL version 420,2013-10-08 05:41:00,
2013-10-08 01:46:00,50.9,37.5,27.99,North,-999,-999.0,-999.0,60,0.00,,,0.00,WSDL version 420,2013-10-08 05:46:00,
2013-10-08 01:51:00,50.7,37.4,27.99,North,-999,-999.0,-999.0,60,0.00,,,0.00,WSDL version 420,2013-10-08 05:51:00,
2013-10-08 01:56:00,50.7,37.3,27.99,North,-999,-999.0,-999.0,60,0.00,,,0.00,WSDL version 420,2013-10-08 05:56:00,
2013-10-08 02:01:00,50.5,37.2,27.99,North,-999,-999.0,-999.0,60,0.00,,,0.00,WSDL version 420,2013-10-08 06:01:00,
2013-10-08 02:06:00,50.4,37.4,27.99,North,-999,-999.0,-999.0,61,0.00,,,0.00,WSDL version 420,2013-10-08 06:06:00,
2013-10-08 02:11:00,50.5,37.5,27.99,North,-999,-999.0,-999.0,61,0.00,,,0.00,WSDL version 420,2013-10-08 06:11:00,
2013-10-08 02:16:00,50.3,37.4,27.99,North,-999,-999.0,-999.0,61,0.00,,,0.00,WSDL version 420,2013-10-08 06:16:00,
2013-10-08 02:21:00,50.2,37.3,27.99,North,-999,-999.0,-999.0,61,0.00,,,0.00,WSDL version 420,2013-10-08 06:21:00,
2013-10-08 02:26:00,50.2,37.3,27.99,North,-999,-999.0,-999.0,61,0.00,,,0.00,WSDL version 420,2013-10-08 06:26:00,
2013-10-08 02:31:00,50.1,37.2,27.99,North,-999,-999.0,-999.0,61,0.00,,,0.00,WSDL version 420,2013-10-08 06:31:00,
2013-10-08 02:36:00,49.7,36.8,27.99,North,-999,-999.0,-999.0,61,0.00,,,0.00,WSDL version 420,2013-10-08 06:36:00,
2013-10-08 02:41:00,49.6,37.0,27.99,North,-999,-999.0,-999.0,62,0.00,,,0.00,WSDL version 420,2013-10-08 06:41:00,
2013-10-08 02:46:00,49.3,36.7,27.99,North,-999,-999.0,-999.0,61,0.00,,,0.00,WSDL version 420,2013-10-08 06:46:00,
2013-10-08 02:51:00,48.9,36.2,27.99,North,-999,-999.0,-999.0,62,0.00,,,0.00,WSDL version 420,2013-10-08 06:51:00,
2013-10-08 02:56:00,48.9,36.4,27.99,North,-999,-999.0,-999.0,62,0.00,,,0.00,WSDL version 420,2013-10-08 06:56:00,
2013-10-08 03:01:00,48.7,36.3,27.99,North,-999,-999.0,-999.0,62,0.00,,,0.00,WSDL version 420,2013-10-08 07:01:00,
2013-10-08 03:06:00,48.7,36.3,27.99,North,-999,-999.0,-999.0,62,0.00,,,0.00,WSDL version 420,2013-10-08 07:06:00,
2013-10-08 03:11:00,48.2,35.8,27.99,North,-999,-999.0,-999.0,62,0.00,,,0.00,WSDL version 420,2013-10-08 07:11:00,
2013-10-08 03:16:00,48.3,36.2,27.99,North,-999,-999.0,-999.0,63,0.00,,,0.00,WSDL version 420,2013-10-08 07:16:00,
2013-10-08 03:21:00,48.7,36.7,27.99,North,-999,-999.0,-999.0,63,0.00,,,0.00,WSDL version 420,2013-10-08 07:21:00,
2013-10-08 03:26:00,48.7,36.7,27.99,North,-999,-999.0,-999.0,63,0.00,,,0.00,WSDL version 420,2013-10-08 07:26:00,
2013-10-08 03:31:00,48.7,36.7,27.99,North,-999,-999.0,-999.0,63,0.00,,,0.00,WSDL version 420,2013-10-08 07:31:00,
2013-10-08 03:36:00,48.6,36.6,27.99,North,-999,-999.0,-999.0,63,0.00,,,0.00,WSDL version 420,2013-10-08 07:36:00,
2013-10-08 03:41:00,48.6,36.6,27.99,North,-999,-999.0,-999.0,63,0.00,,,0.00,WSDL version 420,2013-10-08 07:41:00,
2013-10-08 03:46:00,48.2,36.1,27.99,North,-999,-999.0,-999.0,63,0.00,,,0.00,WSDL version 420,2013-10-08 07:46:00,
2013-10-08 03:51:00,48.1,36.2,27.99,North,-999,-999.0,-999.0,63,0.00,,,0.00,WSDL version 420,2013-10-08 07:51:00,
2013-10-08 03:56:00,48.1,36.2,27.99,North,-999,-999.0,-999.0,63,0.00,,,0.00,WSDL version 420,2013-10-08 07:56:00,
2013-10-08 04:01:00,48.0,35.8,27.99,North,-999,-999.0,-999.0,62,0.00,,,0.00,WSDL version 420,2013-10-08 08:01:00,
2013-10-08 04:06:00,47.9,35.9,27.99,North,-999,-999.0,-999.0,63,0.00,,,0.00,WSDL version 420,2013-10-08 08:06:00,
2013-10-08 04:11:00,48.1,36.1,27.99,North,-999,-999.0,-999.0,63,0.00,,,0.00,WSDL version 420,2013-10-08 08:11:00,
2013-10-08 04:16:00,48.3,36.5,27.99,North,-999,-999.0,-999.0,63,0.00,,,0.00,WSDL version 420,2013-10-08 08:16:00,
2013-10-08 04:21:00,48.0,36.0,27.99,North,-999,-999.0,-999.0,63,0.00,,,0.00,WSDL version 420,2013-10-08 08:21:00,
2013-10-08 04:26:00,48.2,36.2,27.99,North,-999,-999.0,-999.0,63,0.00,,,0.00,WSDL version 420,2013-10-08 08:26:00,
2013-10-08 04:31:00,48.2,36.2,27.99,North,-999,-999.0,-999.0,63,0.00,,,0.00,WSDL version 420,2013-10-08 08:31:00,
2013-10-08 04:36:00,48.3,36.3,27.99,North,-999,-999.0,-999.0,63,0.00,,,0.00,WSDL version 420,2013-10-08 08:36:00,
2013-10-08 04:41:00,48.5,36.5,27.99,North,-999,-999.0,-999.0,63,0.00,,,0.00,WSDL version 420,2013-10-08 08:41:00,
2013-10-08 04:46:00,48.6,36.6,27.99,North,-999,-999.0,-999.0,63,0.00,,,0.00,WSDL version 420,2013-10-08 08:46:00,
2013-10-08 04:51:00,48.6,36.6,27.99,North,-999,-999.0,-999.0,63,0.00,,,0.00,WSDL version 420,2013-10-08 08:51:00,
2013-10-08 04:56:00,48.5,36.5,27.99,North,-999,-999.0,-999.0,63,0.00,,,0.00,WSDL version 420,2013-10-08 08:56:00,
2013-10-08 05:01:00,48.6,36.6,27.99,North,-999,-999.0,-999.0,63,0.00,,,0.00,WSDL version 420,2013-10-08 09:01:00,
2013-10-08 05:06:00,48.6,36.6,28.02,North,-999,-999.0,-999.0,63,0.00,,,0.00,WSDL version 420,2013-10-08 09:06:00,
2013-10-08 05:11:00,48.6,36.6,28.02,North,-999,-999.0,-999.0,63,0.00,,,0.00,WSDL version 420,2013-10-08 09:11:00,
2013-10-08 05:16:00,48.6,36.6,28.02,North,-999,-999.0,-999.0,63,0.00,,,0.00,WSDL version 420,2013-10-08 09:16:00,
2013-10-08 05:21:00,48.6,36.3,28.02,North,-999,-999.0,-999.0,62,0.00,,,0.00,WSDL version 420,2013-10-08 09:21:00,
2013-10-08 05:26:00,48.4,36.0,28.02,North,-999,-999.0,-999.0,62,0.00,,,0.00,WSDL version 420,2013-10-08 09:26:00,
2013-10-08 05:31:00,48.2,35.8,28.02,North,-999,-999.0,-999.0,62,0.00,,,0.00,WSDL version 420,2013-10-08 09:31:00,
2013-10-08 05:36:00,48.2,35.8,28.02,North,-999,-999.0,-999.0,62,0.00,,,0.00,WSDL version 420,2013-10-08 09:36:00,
2013-10-08 05:41:00,48.3,35.9,28.02,North,-999,-999.0,-999.0,62,0.00,,,0.00,WSDL version 420,2013-10-08 09:41:00,
2013-10-08 05:46:00,48.0,35.7,28.02,North,-999,-999.0,-999.0,62,0.00,,,0.00,WSDL version 420,2013-10-08 09:46:00,
2013-10-08 05:51:00,47.8,35.9,28.02,North,-999,-999.0,-999.0,63,0.00,,,0.00,WSDL version 420,2013-10-08 09:51:00,
2013-10-08 05:56:00,47.9,35.9,28.02,North,-999,-999.0,-999.0,63,0.00,,,0.00,WSDL version 420,2013-10-08 09:56:00,
2013-10-08 06:01:00,48.0,36.1,28.02,North,-999,-999.0,-999.0,64,0.00,,,0.00,WSDL version 420,2013-10-08 10:01:00,
2013-10-08 06:06:00,47.8,36.3,28.02,North,-999,-999.0,-999.0,64,0.00,,,0.00,WSDL version 420,2013-10-08 10:06:00,
2013-10-08 06:11:00,47.8,36.3,28.02,North,-999,-999.0,-999.0,64,0.00,,,0.00,WSDL version 420,2013-10-08 10:11:00,
2013-10-08 06:16:00,47.9,36.3,28.02,North,-999,-999.0,-999.0,64,0.00,,,0.00,WSDL version 420,2013-10-08 10:16:00,
2013-10-08 06:21:00,47.9,36.3,28.02,North,-999,-999.0,-999.0,64,0.00,,,0.00,WSDL version 420,2013-10-08 10:21:00,
2013-10-08 06:26:00,47.8,36.3,28.02,North,-999,-999.0,-999.0,64,0.00,,,0.00,WSDL version 420,2013-10-08 10:26:00,
2013-10-08 06:31:00,47.8,36.3,28.02,North,-999,-999.0,-999.0,64,0.00,,,0.00,WSDL version 420,2013-10-08 10:31:00,
2013-10-08 06:36:00,47.8,36.2,28.02,North,-999,-999.0,-999.0,64,0.00,,,0.00,WSDL version 420,2013-10-08 10:36:00,
2013-10-08 06:41:00,47.7,36.1,28.02,North,-999,-999.0,-999.0,64,0.00,,,0.00,WSDL version 420,2013-10-08 10:41:00,
2013-10-08 06:46:00,47.8,36.4,28.02,North,-999,-999.0,-999.0,65,0.00,,,0.00,WSDL version 420,2013-10-08 10:46:00,
2013-10-08 06:51:00,47.6,36.0,28.02,North,-999,-999.0,-999.0,64,0.00,,,0.00,WSDL version 420,2013-10-08 10:51:00,
2013-10-08 06:56:00,47.2,35.6,28.02,North,-999,-999.0,-999.0,64,0.00,,,0.00,WSDL version 420,2013-10-08 10:56:00,
2013-10-08 07:01:00,47.1,35.6,28.02,North,-999,-999.0,-999.0,64,0.00,,,0.00,WSDL version 420,2013-10-08 11:01:00,
2013-10-08 07:06:00,47.3,35.8,28.02,North,-999,-999.0,-999.0,64,0.00,,,0.00,WSDL version 420,2013-10-08 11:06:00,
2013-10-08 07:11:00,47.3,35.8,28.02,North,-999,-999.0,-999.0,64,0.00,,,0.00,WSDL version 420,2013-10-08 11:11:00,
2013-10-08 07:16:00,47.1,35.6,28.02,North,-999,-999.0,-999.0,64,0.00,,,0.00,WSDL version 420,2013-10-08 11:16:00,
2013-10-08 07:21:00,46.9,35.4,28.02,North,-999,-999.0,-999.0,64,0.00,,,0.00,WSDL version 420,2013-10-08 11:21:00,
2013-10-08 07:26:00,46.9,35.4,28.02,North,-999,-999.0,-999.0,64,0.00,,,0.00,WSDL version 420,2013-10-08 11:26:00,
2013-10-08 07:31:00,46.9,35.4,28.02,North,-999,-999.0,-999.0,64,0.00,,,0.00,WSDL version 420,2013-10-08 11:31:00,
2013-10-08 07:36:00,47.0,35.5,28.05,North,-999,-999.0,-999.0,64,0.00,,,0.00,WSDL version 420,2013-10-08 11:36:00,
2013-10-08 07:41:00,47.1,35.5,28.05,North,-999,-999.0,-999.0,64,0.00,,,0.00,WSDL version 420,2013-10-08 11:41:00,
2013-10-08 07:46:00,47.2,35.7,28.05,North,-999,-999.0,-999.0,64,0.00,,,0.00,WSDL version 420,2013-10-08 11:46:00,
2013-10-08 07:51:00,47.3,35.8,28.05,North,-999,-999.0,-999.0,64,0.00,,,0.00,WSDL version 420,2013-10-08 11:51:00,
2013-10-08 07:56:00,47.3,35.8,28.05,North,-999,-999.0,-999.0,64,0.00,,,0.00,WSDL version 420,2013-10-08 11:56:00,
2013-10-08 08:01:00,47.3,35.8,28.05,North,-999,-999.0,-999.0,64,0.00,,,0.00,WSDL version 420,2013-10-08 12:01:00,
2013-10-08 08:06:00,47.5,35.9,28.05,North,-999,-999.0,-999.0,64,0.00,,,0.00,WSDL version 420,2013-10-08 12:06:00,
2013-10-08 08:11:00,47.5,35.9,28.05,North,-999,-999.0,-999.0,64,0.00,,,0.00,WSDL version 420,2013-10-08 12:11:00,
2013-10-08 08:16:00,47.7,36.2,28.05,North,-999,-999.0,-999.0,64,0.00,,,0.00,WSDL version 420,2013-10-08 12:16:00,
2013-10-08 08:21:00,47.8,36.3,28.05,North,-999,-999.0,-999.0,64,0.00,,,0.00,WSDL version 420,2013-10-08 12:21:00,
2013-10-08 08:26:00,47.8,36.3,28.05,North,-999,-999.0,-999.0,64,0.00,,,0.00,WSDL version 420,2013-10-08 12:26:00,
2013-10-08 08:31:00,48.0,36.4,28.05,North,-999,-999.0,-999.0,64,0.00,,,0.00,WSDL version 420,2013-10-08 12:31:00,
2013-10-08 08:36:00,48.3,36.3,28.05,North,-999,-999.0,-999.0,63,0.00,,,0.00,WSDL version 420,2013-10-08 12:36:00,
2013-10-08 08:41:00,48.4,36.4,28.05,North,-999,-999.0,-999.0,63,0.00,,,0.00,WSDL version 420,2013-10-08 12:41:00,
2013-10-08 08:46:00,48.9,36.8,28.05,North,-999,-999.0,-999.0,63,0.00,,,0.00,WSDL version 420,2013-10-08 12:46:00,
2013-10-08 08:51:00,49.2,37.2,28.05,North,-999,-999.0,-999.0,63,0.00,,,0.00,WSDL version 420,2013-10-08 12:51:00,
2013-10-08 08:56:00,49.5,37.5,28.05,North,-999,-999.0,-999.0,63,0.00,,,0.00,WSDL version 420,2013-10-08 12:56:00,
2013-10-08 09:01:00,49.9,37.4,28.05,North,-999,-999.0,-999.0,62,0.00,,,0.00,WSDL version 420,2013-10-08 13:01:00,
2013-10-08 09:06:00,50.3,37.4,28.05,North,-999,-999.0,-999.0,61,0.00,,,0.00,WSDL version 420,2013-10-08 13:06:00,
2013-10-08 09:11:00,50.7,37.4,28.05,North,-999,-999.0,-999.0,60,0.00,,,0.00,WSDL version 420,2013-10-08 13:11:00,
2013-10-08 09:16:00,50.8,37.2,28.05,North,-999,-999.0,-999.0,59,0.00,,,0.00,WSDL version 420,2013-10-08 13:16:00,
2013-10-08 09:21:00,50.9,37.1,28.08,North,-999,-999.0,-999.0,59,0.00,,,0.00,WSDL version 420,2013-10-08 13:21:00,
2013-10-08 09:26:00,51.1,37.3,28.08,North,-999,-999.0,-999.0,59,0.00,,,0.00,WSDL version 420,2013-10-08 13:26:00,
2013-10-08 09:31:00,51.2,36.9,28.08,North,-999,-999.0,-999.0,58,0.00,,,0.00,WSDL version 420,2013-10-08 13:31:00,
2013-10-08 09:36:00,51.4,37.2,28.05,North,-999,-999.0,-999.0,58,0.00,,,0.00,WSDL version 420,2013-10-08 13:36:00,
2013-10-08 09:41:00,51.6,37.3,28.05,North,-999,-999.0,-999.0,58,0.00,,,0.00,WSDL version 420,2013-10-08 13:41:00,
2013-10-08 09:46:00,51.8,37.5,28.05,North,-999,-999.0,-999.0,58,0.00,,,0.00,WSDL version 420,2013-10-08 13:46:00,
2013-10-08 09:51:00,52.5,37.7,28.08,North,-999,-999.0,-999.0,57,0.00,,,0.00,WSDL version 420,2013-10-08 13:51:00,
2013-10-08 09:56:00,53.1,38.6,28.08,North,-999,-999.0,-999.0,58,0.00,,,0.00,WSDL version 420,2013-10-08 13:56:00,
2013-10-08 10:01:00,53.7,38.8,28.08,North,-999,-999.0,-999.0,57,0.00,,,0.00,WSDL version 420,2013-10-08 14:01:00,
2013-10-08 10:06:00,54.1,38.8,28.05,North,-999,-999.0,-999.0,56,0.00,,,0.00,WSDL version 420,2013-10-08 14:06:00,
2013-10-08 10:11:00,54.6,39.3,28.05,North,-999,-999.0,-999.0,56,0.00,,,0.00,WSDL version 420,2013-10-08 14:11:00,
2013-10-08 10:16:00,55.2,39.6,28.05,North,-999,-999.0,-999.0,55,0.00,,,0.00,WSDL version 420,2013-10-08 14:16:00,
2013-10-08 10:21:00,55.6,39.4,28.08,North,-999,-999.0,-999.0,54,0.00,,,0.00,WSDL version 420,2013-10-08 14:21:00,
2013-10-08 10:26:00,55.8,39.4,28.08,North,-999,-999.0,-999.0,54,0.00,,,0.00,WSDL version 420,2013-10-08 14:26:00,
2013-10-08 10:31:00,55.9,39.6,28.08,North,-999,-999.0,-999.0,54,0.00,,,0.00,WSDL version 420,2013-10-08 14:31:00,
2013-10-08 10:36:00,56.1,39.2,28.08,North,-999,-999.0,-999.0,53,0.00,,,0.00,WSDL version 420,2013-10-08 14:36:00,
2013-10-08 10:41:00,56.7,39.9,28.08,North,-999,-999.0,-999.0,53,0.00,,,0.00,WSDL version 420,2013-10-08 14:41:00,
2013-10-08 10:46:00,57.3,40.4,28.08,North,-999,-999.0,-999.0,53,0.00,,,0.00,WSDL version 420,2013-10-08 14:46:00,
2013-10-08 10:51:00,57.9,40.7,28.08,North,-999,-999.0,-999.0,52,0.00,,,0.00,WSDL version 420,2013-10-08 14:51:00,
2013-10-08 10:56:00,57.9,39.9,28.08,North,-999,-999.0,-999.0,50,0.00,,,0.00,WSDL version 420,2013-10-08 14:56:00,
2013-10-08 11:01:00,58.2,39.9,28.08,North,-999,-999.0,-999.0,51,0.00,,,0.00,WSDL version 420,2013-10-08 15:01:00,
2013-10-08 11:06:00,58.8,40.5,28.08,North,-999,-999.0,-999.0,50,0.00,,,0.00,WSDL version 420,2013-10-08 15:06:00,
2013-10-08 11:11:00,58.9,40.4,28.08,North,-999,-999.0,-999.0,50,0.00,,,0.00,WSDL version 420,2013-10-08 15:11:00,
2013-10-08 11:16:00,59.1,40.2,28.08,North,-999,-999.0,-999.0,49,0.00,,,0.00,WSDL version 420,2013-10-08 15:16:00,
2013-10-08 11:21:00,59.5,40.4,28.08,North,-999,-999.0,-999.0,49,0.00,,,0.00,WSDL version 420,2013-10-08 15:21:00,
2013-10-08 11:26:00,59.9,40.4,28.08,North,-999,-999.0,-999.0,48,0.00,,,0.00,WSDL version 420,2013-10-08 15:26:00,
2013-10-08 11:31:00,60.4,40.7,28.08,North,-999,-999.0,-999.0,48,0.00,,,0.00,WSDL version 420,2013-10-08 15:31:00,
2013-10-08 11:36:00,60.5,40.6,28.05,North,-999,-999.0,-999.0,47,0.00,,,0.00,WSDL version 420,2013-10-08 15:36:00,
2013-10-08 11:41:00,60.6,40.2,28.05,North,-999,-999.0,-999.0,47,0.00,,,0.00,WSDL version 420,2013-10-08 15:41:00,
2013-10-08 11:46:00,61.1,40.7,28.05,North,-999,-999.0,-999.0,47,0.00,,,0.00,WSDL version 420,2013-10-08 15:46:00,
2013-10-08 11:51:00,61.4,40.6,28.08,North,-999,-999.0,-999.0,46,0.00,,,0.00,WSDL version 420,2013-10-08 15:51:00,
2013-10-08 11:56:00,61.5,40.5,28.08,North,-999,-999.0,-999.0,46,0.00,,,0.00,WSDL version 420,2013-10-08 15:56:00,
2013-10-08 12:01:00,61.4,40.5,28.08,North,-999,-999.0,-999.0,46,0.00,,,0.00,WSDL version 420,2013-10-08 16:01:00,
2013-10-08 12:06:00,61.6,40.1,28.08,North,-999,-999.0,-999.0,45,0.00,,,0.00,WSDL version 420,2013-10-08 16:06:00,
2013-10-08 12:11:00,61.9,40.3,28.05,North,-999,-999.0,-999.0,45,0.00,,,0.00,WSDL version 420,2013-10-08 16:11:00,
2013-10-08 12:16:00,62.3,40.7,28.05,North,-999,-999.0,-999.0,45,0.00,,,0.00,WSDL version 420,2013-10-08 16:16:00,
2013-10-08 12:21:00,62.7,40.5,28.08,North,-999,-999.0,-999.0,44,0.00,,,0.00,WSDL version 420,2013-10-08 16:21:00,
2013-10-08 12:26:00,63.1,40.9,28.08,North,-999,-999.0,-999.0,44,0.00,,,0.00,WSDL version 420,2013-10-08 16:26:00,
2013-10-08 12:31:00,63.1,40.9,28.08,North,-999,-999.0,-999.0,44,0.00,,,0.00,WSDL version 420,2013-10-08 16:31:00,
2013-10-08 12:37:00,63.4,40.8,28.08,North,-999,-999.0,-999.0,43,0.00,,,0.00,WSDL version 420,2013-10-08 16:37:00,
2013-10-08 12:42:00,63.4,40.6,28.08,North,-999,-999.0,-999.0,43,0.00,,,0.00,WSDL version 420,2013-10-08 16:42:00,
2013-10-08 12:47:00,63.7,40.8,28.08,North,-999,-999.0,-999.0,43,0.00,,,0.00,WSDL version 420,2013-10-08 16:47:00,
2013-10-08 12:52:00,64.0,40.7,28.05,North,-999,-999.0,-999.0,43,0.00,,,0.00,WSDL version 420,2013-10-08 16:52:00,
2013-10-08 12:57:00,64.1,40.9,28.05,North,-999,-999.0,-999.0,42,0.00,,,0.00,WSDL version 420,2013-10-08 16:57:00,
2013-10-08 13:02:00,64.1,40.8,28.05,North,-999,-999.0,-999.0,42,0.00,,,0.00,WSDL version 420,2013-10-08 17:02:00,
2013-10-08 13:07:00,64.3,40.8,28.05,North,-999,-999.0,-999.0,42,0.00,,,0.00,WSDL version 420,2013-10-08 17:07:00,
2013-10-08 13:12:00,64.0,40.5,28.05,North,-999,-999.0,-999.0,42,0.00,,,0.00,WSDL version 420,2013-10-08 17:12:00,
2013-10-08 13:17:00,64.3,40.4,28.05,North,-999,-999.0,-999.0,41,0.00,,,0.00,WSDL version 420,2013-10-08 17:17:00,
2013-10-08 13:22:00,64.2,40.1,28.05,North,-999,-999.0,-999.0,41,0.00,,,0.00,WSDL version 420,2013-10-08 17:22:00,
2013-10-08 13:27:00,64.1,39.9,28.05,North,-999,-999.0,-999.0,41,0.00,,,0.00,WSDL version 420,2013-10-08 17:27:00,
2013-10-08 13:32:00,64.1,40.0,28.05,North,-999,-999.0,-999.0,41,0.00,,,0.00,WSDL version 420,2013-10-08 17:32:00,
2013-10-08 13:37:00,64.8,40.4,28.05,North,-999,-999.0,-999.0,41,0.00,,,0.00,WSDL version 420,2013-10-08 17:37:00,
2013-10-08 13:42:00,64.9,40.0,28.05,North,-999,-999.0,-999.0,40,0.00,,,0.00,WSDL version 420,2013-10-08 17:42:00,
2013-10-08 13:47:00,65.0,40.3,28.05,North,-999,-999.0,-999.0,40,0.00,,,0.00,WSDL version 420,2013-10-08 17:47:00,
2013-10-08 13:52:00,64.9,40.0,28.05,North,-999,-999.0,-999.0,40,0.00,,,0.00,WSDL version 420,2013-10-08 17:52:00,
2013-10-08 13:57:00,65.4,40.2,28.05,North,-999,-999.0,-999.0,39,0.00,,,0.00,WSDL version 420,2013-10-08 17:57:00,
2013-10-08 14:02:00,64.9,40.0,28.05,North,-999,-999.0,-999.0,40,0.00,,,0.00,WSDL version 420,2013-10-08 18:02:00,
2013-10-08 14:09:00,64.2,39.4,28.05,North,-999,-999.0,-999.0,40,0.00,,,0.00,WSDL version 420,2013-10-08 18:09:00,
2013-10-08 14:14:00,63.9,38.9,28.05,North,-999,-999.0,-999.0,40,0.00,,,0.00,WSDL version 420,2013-10-08 18:14:00,
2013-10-08 14:19:00,64.2,39.4,28.05,North,-999,-999.0,-999.0,40,0.00,,,0.00,WSDL version 420,2013-10-08 18:19:00,
2013-10-08 14:24:00,64.1,39.3,28.05,North,-999,-999.0,-999.0,40,0.00,,,0.00,WSDL version 420,2013-10-08 18:24:00,
2013-10-08 14:29:00,65.0,40.1,28.05,North,-999,-999.0,-999.0,40,0.00,,,0.00,WSDL version 420,2013-10-08 18:29:00,
2013-10-08 14:34:00,64.9,39.6,28.05,North,-999,-999.0,-999.0,39,0.00,,,0.00,WSDL version 420,2013-10-08 18:34:00,
2013-10-08 14:39:00,64.5,39.0,28.05,North,-999,-999.0,-999.0,39,0.00,,,0.00,WSDL version 420,2013-10-08 18:39:00,
2013-10-08 14:44:00,64.8,39.7,28.05,North,-999,-999.0,-999.0,40,0.00,,,0.00,WSDL version 420,2013-10-08 18:44:00,
2013-10-08 14:49:00,65.5,40.3,28.02,North,-999,-999.0,-999.0,39,0.00,,,0.00,WSDL version 420,2013-10-08 18:49:00,
2013-10-08 14:54:00,65.1,39.4,28.02,North,-999,-999.0,-999.0,39,0.00,,,0.00,WSDL version 420,2013-10-08 18:54:00,
2013-10-08 14:59:00,65.2,39.7,28.02,North,-999,-999.0,-999.0,39,0.00,,,0.00,WSDL version 420,2013-10-08 18:59:00,
2013-10-08 15:04:00,64.7,39.2,28.02,North,-999,-999.0,-999.0,39,0.00,,,0.00,WSDL version 420,2013-10-08 19:04:00,
2013-10-08 15:09:00,64.2,39.0,28.02,North,-999,-999.0,-999.0,39,0.00,,,0.00,WSDL version 420,2013-10-08 19:09:00,
2013-10-08 15:14:00,63.7,38.6,28.02,North,-999,-999.0,-999.0,40,0.00,,,0.00,WSDL version 420,2013-10-08 19:14:00,
2013-10-08 15:19:00,63.7,38.9,28.02,North,-999,-999.0,-999.0,40,0.00,,,0.00,WSDL version 420,2013-10-08 19:19:00,
2013-10-08 15:24:00,64.0,39.5,28.02,North,-999,-999.0,-999.0,41,0.00,,,0.00,WSDL version 420,2013-10-08 19:24:00,
2013-10-08 15:29:00,64.5,39.5,28.02,North,-999,-999.0,-999.0,39,0.00,,,0.00,WSDL version 420,2013-10-08 19:29:00,
2013-10-08 15:34:00,65.1,39.6,28.02,North,-999,-999.0,-999.0,39,0.00,,,0.00,WSDL version 420,2013-10-08 19:34:00,
2013-10-08 15:39:00,65.3,40.4,28.02,North,-999,-999.0,-999.0,40,0.00,,,0.00,WSDL version 420,2013-10-08 19:39:00,
2013-10-08 15:44:00,65.4,40.7,28.02,North,-999,-999.0,-999.0,41,0.00,,,0.00,WSDL version 420,2013-10-08 19:44:00,
2013-10-08 15:49:00,66.0,41.7,28.02,North,-999,-999.0,-999.0,41,0.00,,,0.00,WSDL version 420,2013-10-08 19:49:00,
2013-10-08 15:54:00,66.7,42.1,28.02,North,-999,-999.0,-999.0,40,0.00,,,0.00,WSDL version 420,2013-10-08 19:54:00,
2013-10-08 15:59:00,67.3,42.4,28.02,North,-999,-999.0,-999.0,40,0.00,,,0.00,WSDL version 420,2013-10-08 19:59:00,
2013-10-08 16:04:00,67.4,42.2,28.02,North,-999,-999.0,-999.0,40,0.00,,,0.00,WSDL version 420,2013-10-08 20:04:00,
2013-10-08 16:09:00,67.3,42.2,28.02,North,-999,-999.0,-999.0,40,0.00,,,0.00,WSDL version 420,2013-10-08 20:09:00,
2013-10-08 16:14:00,67.7,42.5,28.02,North,-999,-999.0,-999.0,40,0.00,,,0.00,WSDL version 420,2013-10-08 20:14:00,
2013-10-08 16:19:00,68.1,43.1,28.02,North,-999,-999.0,-999.0,40,0.00,,,0.00,WSDL version 420,2013-10-08 20:19:00,
2013-10-08 16:24:00,68.1,42.4,28.02,North,-999,-999.0,-999.0,39,0.00,,,0.00,WSDL version 420,2013-10-08 20:24:00,
2013-10-08 16:29:00,68.0,42.6,28.02,North,-999,-999.0,-999.0,40,0.00,,,0.00,WSDL version 420,2013-10-08 20:29:00,
2013-10-08 16:34:00,67.9,42.0,28.02,North,-999,-999.0,-999.0,39,0.00,,,0.00,WSDL version 420,2013-10-08 20:34:00,
2013-10-08 16:39:00,68.1,42.2,28.02,North,-999,-999.0,-999.0,39,0.00,,,0.00,WSDL version 420,2013-10-08 20:39:00,
2013-10-08 16:44:00,68.2,42.4,28.02,North,-999,-999.0,-999.0,39,0.00,,,0.00,WSDL version 420,2013-10-08 20:44:00,
2013-10-08 16:49:00,68.4,42.5,28.02,North,-999,-999.0,-999.0,39,0.00,,,0.00,WSDL version 420,2013-10-08 20:49:00,
2013-10-08 16:54:00,68.4,42.5,28.02,North,-999,-999.0,-999.0,39,0.00,,,0.00,WSDL version 420,2013-10-08 20:54:00,
2013-10-08 16:59:00,68.4,42.5,28.02,North,-999,-999.0,-999.0,39,0.00,,,0.00,WSDL version 420,2013-10-08 20:59:00,
2013-10-08 17:04:00,68.4,42.1,28.02,North,-999,-999.0,-999.0,38,0.00,,,0.00,WSDL version 420,2013-10-08 21:04:00,
2013-10-08 17:09:00,68.5,42.8,28.02,North,-999,-999.0,-999.0,39,0.00,,,0.00,WSDL version 420,2013-10-08 21:09:00,
2013-10-08 17:14:00,68.5,42.2,28.02,North,-999,-999.0,-999.0,39,0.00,,,0.00,WSDL version 420,2013-10-08 21:14:00,
2013-10-08 17:19:00,68.4,42.5,28.02,North,-999,-999.0,-999.0,39,0.00,,,0.00,WSDL version 420,2013-10-08 21:19:00,
2013-10-08 17:24:00,68.4,42.7,28.02,North,-999,-999.0,-999.0,39,0.00,,,0.00,WSDL version 420,2013-10-08 21:24:00,
2013-10-08 17:29:00,67.9,42.5,28.02,North,-999,-999.0,-999.0,40,0.00,,,0.00,WSDL version 420,2013-10-08 21:29:00,
2013-10-08 17:34:00,67.6,42.5,28.02,North,-999,-999.0,-999.0,40,0.00,,,0.00,WSDL version 420,2013-10-08 21:34:00,
2013-10-08 17:39:00,67.3,42.2,28.02,North,-999,-999.0,-999.0,40,0.00,,,0.00,WSDL version 420,2013-10-08 21:39:00,
2013-10-08 17:44:00,67.3,42.2,28.02,North,-999,-999.0,-999.0,40,0.00,,,0.00,WSDL version 420,2013-10-08 21:44:00,
2013-10-08 17:49:00,67.3,41.9,28.02,North,-999,-999.0,-999.0,39,0.00,,,0.00,WSDL version 420,2013-10-08 21:49:00,
2013-10-08 17:54:00,67.3,41.7,28.02,North,-999,-999.0,-999.0,40,0.00,,,0.00,WSDL version 420,2013-10-08 21:54:00,
2013-10-08 17:59:00,67.3,42.2,28.02,North,-999,-999.0,-999.0,40,0.00,,,0.00,WSDL version 420,2013-10-08 21:59:00,
2013-10-08 18:04:00,67.0,41.9,28.02,North,-999,-999.0,-999.0,40,0.00,,,0.00,WSDL version 420,2013-10-08 22:04:00,
2013-10-08 18:09:00,66.9,41.8,28.02,North,-999,-999.0,-999.0,40,0.00,,,0.00,WSDL version 420,2013-10-08 22:09:00,
2013-10-08 18:14:00,66.6,41.6,28.02,North,-999,-999.0,-999.0,40,0.00,,,0.00,WSDL version 420,2013-10-08 22:14:00,
2013-10-08 18:19:00,66.3,41.3,28.05,North,-999,-999.0,-999.0,40,0.00,,,0.00,WSDL version 420,2013-10-08 22:19:00,
2013-10-08 18:24:00,66.0,41.6,28.05,ESE,113,0.0,0.0,41,0.00,,,0.00,WSDL version 420,2013-10-08 22:24:00,
2013-10-08 18:29:00,65.7,41.4,28.05,ESE,113,0.0,0.0,41,0.00,,,0.00,WSDL version 420,2013-10-08 22:29:00,
2013-10-08 18:34:00,65.4,41.1,28.05,ESE,113,0.0,0.0,41,0.00,,,0.00,WSDL version 420,2013-10-08 22:34:00,
2013-10-08 18:39:00,65.0,41.0,28.05,East,90,0.0,0.0,42,0.00,,,0.00,WSDL version 420,2013-10-08 22:39:00,
2013-10-08 18:44:00,64.8,40.5,28.05,North,360,0.0,0.0,41,0.00,,,0.00,WSDL version 420,2013-10-08 22:44:00,
2013-10-08 18:49:00,64.4,40.8,28.05,North,360,0.0,0.0,42,0.00,,,0.00,WSDL version 420,2013-10-08 22:49:00,
2013-10-08 18:54:00,64.1,40.8,28.05,ESE,113,0.0,0.0,43,0.00,,,0.00,WSDL version 420,2013-10-08 22:54:00,
2013-10-08 18:59:00,63.8,40.9,28.05,ESE,113,0.0,0.0,43,0.00,,,0.00,WSDL version 420,2013-10-08 22:59:00,
2013-10-08 19:04:00,63.5,40.6,28.05,ESE,113,0.0,0.0,43,0.00,,,0.00,WSDL version 420,2013-10-08 23:04:00,
2013-10-08 19:09:00,63.2,40.4,28.05,North,-999,-999.0,-999.0,43,0.00,,,0.00,WSDL version 420,2013-10-08 23:09:00,
2013-10-08 19:14:00,63.0,40.4,28.05,North,-999,-999.0,-999.0,44,0.00,,,0.00,WSDL version 420,2013-10-08 23:14:00,
2013-10-08 19:19:00,62.8,40.6,28.05,North,-999,-999.0,-999.0,44,0.00,,,0.00,WSDL version 420,2013-10-08 23:19:00,
2013-10-08 19:24:00,62.6,40.4,28.05,North,-999,-999.0,-999.0,44,0.00,,,0.00,WSDL version 420,2013-10-08 23:24:00,
2013-10-08 19:29:00,62.3,40.1,28.05,North,-999,-999.0,-999.0,44,0.00,,,0.00,WSDL version 420,2013-10-08 23:29:00,
2013-10-08 19:34:00,62.2,40.7,28.05,North,-999,-999.0,-999.0,45,0.00,,,0.00,WSDL version 420,2013-10-08 23:34:00,
2013-10-08 19:39:00,61.9,40.3,28.05,North,-999,-999.0,-999.0,45,0.00,,,0.00,WSDL version 420,2013-10-08 23:39:00,
2013-10-08 19:44:00,61.6,40.1,28.05,North,-999,-999.0,-999.0,45,0.00,,,0.00,WSDL version 420,2013-10-08 23:44:00,
2013-10-08 19:49:00,61.5,39.9,28.05,North,-999,-999.0,-999.0,45,0.00,,,0.00,WSDL version 420,2013-10-08 23:49:00,
2013-10-08 19:54:00,61.3,39.8,28.05,North,-999,-999.0,-999.0,45,0.00,,,0.00,WSDL version 420,2013-10-08 23:54:00,
2013-10-08 19:59:00,61.2,39.7,28.05,North,-999,-999.0,-999.0,45,0.00,,,0.00,WSDL version 420,2013-10-08 23:59:00,
2013-10-08 20:04:00,61.0,39.5,28.05,North,-999,-999.0,-999.0,45,0.00,,,0.00,WSDL version 420,2013-10-09 00:04:00,
2013-10-08 20:09:00,60.8,39.3,28.05,North,-999,-999.0,-999.0,45,0.00,,,0.00,WSDL version 420,2013-10-09 00:09:00,
2013-10-08 20:14:00,60.6,39.7,28.05,North,-999,-999.0,-999.0,46,0.00,,,0.00,WSDL version 420,2013-10-09 00:14:00,
2013-10-08 20:19:00,60.4,39.6,28.05,North,-999,-999.0,-999.0,46,0.00,,,0.00,WSDL version 420,2013-10-09 00:19:00,
2013-10-08 20:24:00,60.4,39.6,28.05,North,-999,-999.0,-999.0,46,0.00,,,0.00,WSDL version 420,2013-10-09 00:24:00,
2013-10-08 20:29:00,60.3,39.4,28.05,ESE,113,0.0,0.0,46,0.00,,,0.00,WSDL version 420,2013-10-09 00:29:00,
2013-10-08 20:34:00,60.0,39.2,28.05,ESE,113,0.0,0.0,46,0.00,,,0.00,WSDL version 420,2013-10-09 00:34:00,
2013-10-08 20:39:00,59.8,39.0,28.05,ESE,113,0.0,0.0,46,0.00,,,0.00,WSDL version 420,2013-10-09 00:39:00,
2013-10-08 20:44:00,59.7,39.1,28.05,North,0,0.0,0.0,47,0.00,,,0.00,WSDL version 420,2013-10-09 00:44:00,
2013-10-08 20:49:00,59.5,39.3,28.08,North,-999,-999.0,-999.0,47,0.00,,,0.00,WSDL version 420,2013-10-09 00:49:00,
2013-10-08 20:54:00,59.4,39.2,28.08,North,-999,-999.0,-999.0,47,0.00,,,0.00,WSDL version 420,2013-10-09 00:54:00,
2013-10-08 20:59:00,59.2,39.0,28.08,North,-999,-999.0,-999.0,47,0.00,,,0.00,WSDL version 420,2013-10-09 00:59:00,
2013-10-08 21:04:00,59.1,38.9,28.08,North,-999,-999.0,-999.0,47,0.00,,,0.00,WSDL version 420,2013-10-09 01:04:00,
2013-10-08 21:09:00,58.8,39.1,28.08,North,-999,-999.0,-999.0,48,0.00,,,0.00,WSDL version 420,2013-10-09 01:09:00,
2013-10-08 21:14:00,58.6,39.0,28.08,North,-999,-999.0,-999.0,48,0.00,,,0.00,WSDL version 420,2013-10-09 01:14:00,
2013-10-08 21:19:00,58.6,39.0,28.08,North,-999,-999.0,-999.0,48,0.00,,,0.00,WSDL version 420,2013-10-09 01:19:00,
2013-10-08 21:24:00,58.3,38.8,28.08,North,-999,-999.0,-999.0,48,0.00,,,0.00,WSDL version 420,2013-10-09 01:24:00,
2013-10-08 21:29:00,58.1,38.9,28.08,North,-999,-999.0,-999.0,49,0.00,,,0.00,WSDL version 420,2013-10-09 01:29:00,
2013-10-08 21:34:00,58.0,39.0,28.08,North,-999,-999.0,-999.0,49,0.00,,,0.00,WSDL version 420,2013-10-09 01:34:00,
2013-10-08 21:39:00,57.7,38.7,28.08,North,-999,-999.0,-999.0,49,0.00,,,0.00,WSDL version 420,2013-10-09 01:39:00,
2013-10-08 21:44:00,57.7,39.2,28.08,North,-999,-999.0,-999.0,50,0.00,,,0.00,WSDL version 420,2013-10-09 01:44:00,
2013-10-08 21:49:00,57.9,39.4,28.08,North,-999,-999.0,-999.0,50,0.00,,,0.00,WSDL version 420,2013-10-09 01:49:00,
2013-10-08 21:54:00,57.7,39.2,28.08,North,-999,-999.0,-999.0,50,0.00,,,0.00,WSDL version 420,2013-10-09 01:54:00,
2013-10-08 21:59:00,57.6,39.1,28.08,North,-999,-999.0,-999.0,50,0.00,,,0.00,WSDL version 420,2013-10-09 01:59:00,
2013-10-08 22:04:00,57.4,39.3,28.08,North,-999,-999.0,-999.0,51,0.00,,,0.00,WSDL version 420,2013-10-09 02:04:00,
2013-10-08 22:09:00,57.4,39.4,28.08,North,-999,-999.0,-999.0,51,0.00,,,0.00,WSDL version 420,2013-10-09 02:09:00,
2013-10-08 22:14:00,57.3,39.3,28.08,North,-999,-999.0,-999.0,51,0.00,,,0.00,WSDL version 420,2013-10-09 02:14:00,
2013-10-08 22:19:00,57.1,39.1,28.08,North,-999,-999.0,-999.0,51,0.00,,,0.00,WSDL version 420,2013-10-09 02:19:00,
2013-10-08 22:24:00,56.8,39.2,28.08,North,-999,-999.0,-999.0,52,0.00,,,0.00,WSDL version 420,2013-10-09 02:24:00,
2013-10-08 22:29:00,56.7,39.3,28.08,North,-999,-999.0,-999.0,52,0.00,,,0.00,WSDL version 420,2013-10-09 02:29:00,
2013-10-08 22:34:00,56.7,38.9,28.08,North,-999,-999.0,-999.0,52,0.00,,,0.00,WSDL version 420,2013-10-09 02:34:00,
2013-10-08 22:39:00,56.7,39.3,28.11,North,-999,-999.0,-999.0,52,0.00,,,0.00,WSDL version 420,2013-10-09 02:39:00,
2013-10-08 22:44:00,56.5,39.1,28.11,North,-999,-999.0,-999.0,52,0.00,,,0.00,WSDL version 420,2013-10-09 02:44:00,
2013-10-08 22:49:00,56.5,39.1,28.08,ESE,113,0.0,0.0,52,0.00,,,0.00,WSDL version 420,2013-10-09 02:49:00,
2013-10-08 22:54:00,56.4,39.0,28.08,ESE,113,0.0,0.0,52,0.00,,,0.00,WSDL version 420,2013-10-09 02:54:00,
2013-10-08 22:59:00,56.3,38.9,28.08,ESE,113,0.0,0.0,52,0.00,,,0.00,WSDL version 420,2013-10-09 02:59:00,
2013-10-08 23:04:00,56.2,38.9,28.08,North,-999,-999.0,-999.0,52,0.00,,,0.00,WSDL version 420,2013-10-09 03:04:00,
2013-10-08 23:09:00,56.0,38.7,28.08,North,-999,-999.0,-999.0,52,0.00,,,0.00,WSDL version 420,2013-10-09 03:09:00,
2013-10-08 23:14:00,55.9,39.1,28.08,North,-999,-999.0,-999.0,53,0.00,,,0.00,WSDL version 420,2013-10-09 03:14:00,
2013-10-08 23:19:00,55.9,39.1,28.08,North,-999,-999.0,-999.0,53,0.00,,,0.00,WSDL version 420,2013-10-09 03:19:00,
2013-10-08 23:24:00,55.8,38.9,28.08,North,-999,-999.0,-999.0,53,0.00,,,0.00,WSDL version 420,2013-10-09 03:24:00,
2013-10-08 23:29:00,55.6,38.7,28.08,North,-999,-999.0,-999.0,53,0.00,,,0.00,WSDL version 420,2013-10-09 03:29:00,
2013-10-08 23:34:00,55.5,38.6,28.08,North,-999,-999.0,-999.0,53,0.00,,,0.00,WSDL version 420,2013-10-09 03:34:00,
2013-10-08 23:39:00,55.5,38.7,28.08,North,-999,-999.0,-999.0,53,0.00,,,0.00,WSDL version 420,2013-10-09 03:39:00,
2013-10-08 23:44:00,55.5,38.7,28.08,North,-999,-999.0,-999.0,53,0.00,,,0.00,WSDL version 420,2013-10-09 03:44:00,
2013-10-08 23:49:00,55.2,38.9,28.08,North,-999,-999.0,-999.0,54,0.00,,,0.00,WSDL version 420,2013-10-09 03:49:00,
2013-10-08 23:54:00,54.9,38.6,28.08,North,-999,-999.0,-999.0,54,0.00,,,0.00,WSDL version 420,2013-10-09 03:54:00,
2013-10-08 23:59:00,54.8,38.5,28.08,North,-999,-999.0,-999.0,54,0.00,,,0.00,WSDL version 420,2013-10-09 03:59:00,